Location: Alpine
(43.1636°N, 111.0180°W)
Time: 05:40:38
(UTC+00:00)

Tiros 1 despin weight - Pass Details

Date: 03 June 2022
Orbit: 591 x 639 km, 48.2° (Epoch: 30 June)

Event Time Altitude Azimuth Distance (km) Brightness Sun altitude
Rises 01:44:50 0° 285° (WNW) 2,884 ? 11.1°
Reaches altitude 10° 01:47:15 10° 292° (WNW) 1,970 ? 10.7°
Maximum altitude 01:51:36 44° 5° (N) 840 ? 10.0°
Drops below altitude 10° 01:55:52 10° 78° (ENE) 1,940 ? 9.3°
Sets 01:58:13 0° 85° (E) 2,835 ? 8.9°
